Powrót do katalogu

STARLINK-37484

AktywnyŁącznośćVLEO
NORAD 69527·PAYLOAD·🇺🇸 United States

Wystrzelony Jun 12, 2026 z Cape Canaveral Space Force Station

Loading…

Następne Przeloty (najbliższe 24 godziny)

TLE

ŚwieżeSource: CelesTrak SupGP

Epoka: Sep 14, 2026, 21:01 UTC

1 69527C 26133V   26257.87618056  .00057145  00000+0  16889-2 0  2579
2 69527  53.1566 255.7457 0001183  88.5530 286.1796 15.34352531    16

Śledź STARLINK-37484 w czasie rzeczywistym z AllMySat

Download on the App Store